Moore, Oklahoma, United States
Lat: 35.34N, Lon: 97.49W
Wx Zone: OKZ029
Local Info
Past Weather Observations for Monday, September 26, 2016

NOTE: This archive is for the closest National Weather Service station to Moore. Information may differ from the station used for current weather conditions.

Click here for Long-term Archive

Time Weather Temperature Dewpoint Humidity Pressure Winds Precip Visibility
23:52
Overcast
61°F / 16°C 48°F / 9°C 63% 30.18 in
(1022 mb)
Calm - 10SM
22:52
Overcast
61°F / 16°C 50°F / 10°C 68% 30.18 in
(1022 mb)
NNW 4.6 mph
(NNW 7 kph)
- 10SM
21:52
Overcast
59°F / 15°C 48°F / 9°C 68% 30.21 in
(1023 mb)
Calm - 10SM
20:52
Mostly Cloudy
63°F / 17°C 46°F / 8°C 56% 30.21 in
(1023 mb)
NNW 4.6 mph
(NNW 7 kph)
- 10SM
19:52
Mostly Cloudy
66°F / 19°C 39°F / 4°C 37% 30.18 in
(1022 mb)
NNE 8.1 mph
(NNE 13 kph)
- 10SM
18:52
Mostly Cloudy
68°F / 20°C 37°F / 3°C 33% 30.18 in
(1022 mb)
N 8.1 mph
(N 13 kph)
- 10SM
17:52
Mostly Cloudy
72°F / 22°C 36°F / 2°C 27% 30.18 in
(1022 mb)
NE 9.2 mph
(NE 15 kph)
- 10SM
16:52
Mostly Cloudy
73°F / 23°C 34°F / 1°C 23% 30.18 in
(1022 mb)
NNE 13.8 mph
(NNE 22 kph)
- 10SM
15:52
Mostly Cloudy
75°F / 24°C 34°F / 1°C 22% 30.18 in
(1022 mb)
N 15 mph
(N 24 kph)
- 10SM
14:52
Mostly Cloudy
75°F / 24°C 37°F / 3°C 25% 30.21 in
(1023 mb)
NE 15 mph
(NE 24 kph)
- 10SM
13:52
Partly Cloudy
75°F / 24°C 37°F / 3°C 25% 30.21 in
(1023 mb)
NNE 15 mph
(NNE 24 kph)
- 10SM
12:52
Partly Cloudy
75°F / 24°C 36°F / 2°C 24% 30.24 in
(1024 mb)
NNE 18.4 mph
(NNE 30 kph)
- 10SM
11:52
Mostly Cloudy
73°F / 23°C 36°F / 2°C 25% 30.27 in
(1025 mb)
NNE 16.1 mph
(NNE 26 kph)
- 10SM
10:52
Mostly Cloudy
72°F / 22°C 39°F / 4°C 31% 30.3 in
(1026 mb)
NE 16.1 mph
(NE 26 kph)
- 10SM
09:52
Mostly Cloudy
68°F / 20°C 46°F / 8°C 46% 30.3 in
(1026 mb)
NE 9.2 mph
(NE 15 kph)
- 10SM
08:52
Mostly Cloudy
64°F / 18°C 46°F / 8°C 52% 30.3 in
(1026 mb)
NNE 11.5 mph
(NNE 19 kph)
- 10SM
07:52
Mostly Cloudy
63°F / 17°C 46°F / 8°C 56% 30.27 in
(1025 mb)
NNE 8.1 mph
(NNE 13 kph)
- 10SM
06:52
Partly Cloudy
59°F / 15°C 48°F / 9°C 68% 30.24 in
(1024 mb)
N 9.2 mph
(N 15 kph)
- 10SM
05:52
Partly Cloudy
61°F / 16°C 50°F / 10°C 68% 30.24 in
(1024 mb)
NE 11.5 mph
(NE 19 kph)
- 10SM
04:52
Partly Cloudy
61°F / 16°C 52°F / 11°C 72% 30.24 in
(1024 mb)
NNE 10.4 mph
(NNE 17 kph)
- 10SM
03:52
Partly Cloudy
61°F / 16°C 54°F / 12°C 77% 30.21 in
(1023 mb)
N 11.5 mph
(N 19 kph)
- 10SM
02:52
Partly Cloudy
63°F / 17°C 55°F / 13°C 77% 30.21 in
(1023 mb)
N 11.5 mph
(N 19 kph)
- 10SM
01:52
Mostly Cloudy
64°F / 18°C 55°F / 13°C 73% 30.24 in
(1024 mb)
N 10.4 mph
(N 17 kph)
- 10SM
00:52
Mostly Cloudy
64°F / 18°C 54°F / 12°C 68% 30.24 in
(1024 mb)
N 9.2 mph
(N 15 kph)
- 10SM
Time Weather Temperature Dewpoint Humidity Pressure Winds Precip Visibility


Weather for websites

WeatherForYou.com, LLC is not responsible for any damages or problems caused by this service. Current weather conditions are obtained from the closest station including government and personal stations which may have varying degrees of accuracy. Weather forecasts are derived from the NOAA NDFD. Like all things, this site belongs to Jesus Christ... He just trusts us to maintain it. If you have any questions or comments email webmaster@weatherforyou.com

Copyright © 2016, WeatherForYou.com LLC. All rights reserved.